Location: Be?i?
(36.9044°N, 30.1006°E)
Time: 11:27:04
(UTC+00:00)

Cosmos 2058 Rocket - Pass Details

Date: 05 August 2024
Orbit: 608 x 634 km, 82.5° (Epoch: 08 September)

Event Time Altitude Azimuth Distance (km) Brightness Sun altitude
Rises 18:24:29 0° 357° (N) 2,891 7.1 -15.3°
Reaches altitude 10° 18:26:45 10° 2° (N) 1,985 6.1 -15.7°
Maximum altitude 18:31:04 56° 81° (E) 740 3.2 -16.4°
Enters shadow 18:33:03 30° 146° (SSE) 1,123 3.8 -16.7°
